THY6PH LTBJ-LTFM

Flight info

Callsign THY6PH
Flight time 0h 53m
Altitude 28000
Route BERGO N618 DUGLA/N0436F270 Z713 INBET
Aircraft B738/M-SDE2E3FGHIRWXY/LB1

Departure

Time 2026-02-17 12:41
Airport Adnan Menderes International Airport (LTBJ)

Arrival

Time 2026-02-17 13:34
Airport İstanbul Airport (LTFM)
Time Latitude Longitude Altitude Speed Heading
2026-02-17 12:31 38.29102 27.15204 403 ft 0 kts 346°
2026-02-17 12:33 38.29115 27.15200 403 ft 5 kts 345°
2026-02-17 12:33 38.29169 27.15182 403 ft 9 kts 346°
2026-02-17 12:34 38.29230 27.15163 402 ft 8 kts 345°
2026-02-17 12:34 38.29314 27.15139 400 ft 7 kts 360°
2026-02-17 12:34 38.29343 27.15174 400 ft 5 kts 69°
2026-02-17 12:35 38.29362 27.15272 402 ft 7 kts 80°
2026-02-17 12:35 38.29374 27.15350 403 ft 10 kts 76°
2026-02-17 12:35 38.29404 27.15453 403 ft 12 kts 72°
2026-02-17 12:35 38.29421 27.15530 405 ft 8 kts 76°
2026-02-17 12:36 38.29435 27.15598 407 ft 5 kts 71°
2026-02-17 12:36 38.29489 27.15621 408 ft 14 kts 347°
2026-02-17 12:36 38.29618 27.15567 410 ft 21 kts 351°
2026-02-17 12:36 38.29752 27.15520 412 ft 11 kts 327°
2026-02-17 12:37 38.29802 27.15513 412 ft 10 kts
2026-02-17 12:37 38.29910 27.15494 414 ft 20 kts 347°
2026-02-17 12:37 38.30082 27.15441 418 ft 29 kts 347°
2026-02-17 12:37 38.30310 27.15373 423 ft 36 kts 346°
2026-02-17 12:38 38.30531 27.15304 426 ft 19 kts 348°
2026-02-17 12:38 38.30624 27.15235 426 ft 14 kts 264°
2026-02-17 12:38 38.30598 27.15116 426 ft 11 kts 253°
2026-02-17 12:39 38.30555 27.15087 426 ft 0 kts 170°
2026-02-17 12:40 38.30550 27.15088 426 ft 3 kts 169°
2026-02-17 12:40 38.30414 27.15127 424 ft 50 kts 167°
2026-02-17 12:40 38.29857 27.15295 410 ft 112 kts 166°
2026-02-17 12:40 38.28914 27.15578 407 ft 160 kts 168°
2026-02-17 12:41 38.27823 27.15927 978 ft 160 kts 167°
2026-02-17 12:41 38.26764 27.16239 1701 ft 159 kts 168°
2026-02-17 12:41 38.25647 27.16602 2215 ft 172 kts 166°
2026-02-17 12:41 38.24454 27.16992 2769 ft 183 kts 167°
2026-02-17 12:42 38.23188 27.17392 3331 ft 195 kts 167°
2026-02-17 12:42 38.21811 27.17823 3868 ft 210 kts 168°
2026-02-17 12:42 38.20374 27.18251 4468 ft 220 kts 171°
2026-02-17 12:43 38.17256 27.18502 5689 ft 235 kts 197°
2026-02-17 12:43 38.15834 27.17438 6397 ft 242 kts 220°
2026-02-17 12:43 38.14865 27.15713 7226 ft 247 kts 240°
2026-02-17 12:43 38.14566 27.13547 8124 ft 252 kts 259°
2026-02-17 12:44 38.14468 27.11324 8776 ft 256 kts 261°
2026-02-17 12:44 38.14684 27.09039 9463 ft 270 kts 280°
2026-02-17 12:44 38.15663 27.06914 10041 ft 294 kts 304°
2026-02-17 12:44 38.17396 27.05364 10466 ft 324 kts 333°
2026-02-17 12:45 38.19643 27.04670 10873 ft 339 kts 341°
2026-02-17 12:45 38.21964 27.03839 11183 ft 343 kts 333°
2026-02-17 12:45 38.24279 27.02776 11356 ft 361 kts 336°
2026-02-17 12:45 38.26781 27.01905 11629 ft 377 kts 341°
2026-02-17 12:46 38.29385 27.01160 11791 ft 392 kts 343°
2026-02-17 12:46 38.32212 27.00770 11906 ft 413 kts 357°
2026-02-17 12:46 38.35175 27.01131 12188 ft 424 kts
2026-02-17 12:47 38.41064 27.02269 13160 ft 428 kts
2026-02-17 12:47 38.44033 27.02756 13580 ft 431 kts
2026-02-17 12:47 38.47006 27.03260 13955 ft 436 kts
2026-02-17 12:47 38.50056 27.03829 14360 ft 438 kts
2026-02-17 12:48 38.53064 27.04228 14953 ft 434 kts
2026-02-17 12:48 38.56129 27.04672 15236 ft 441 kts
2026-02-17 12:48 38.59148 27.05264 15656 ft 444 kts
2026-02-17 12:48 38.62241 27.05877 16056 ft 447 kts
2026-02-17 12:49 38.65311 27.06552 16403 ft 451 kts
2026-02-17 12:49 38.68360 27.07380 16823 ft 451 kts
2026-02-17 12:49 38.71444 27.08110 17251 ft 451 kts
2026-02-17 12:49 38.74557 27.08654 17688 ft 450 kts
2026-02-17 12:50 38.77664 27.09192 17972 ft 455 kts
2026-02-17 12:50 38.80816 27.09736 18394 ft 454 kts
2026-02-17 12:50 38.83963 27.10295 18745 ft 456 kts
2026-02-17 12:51 38.90438 27.11447 19427 ft 459 kts
2026-02-17 12:51 38.93642 27.12028 19705 ft 462 kts
2026-02-17 12:51 38.96872 27.12627 20089 ft 462 kts
2026-02-17 12:51 39.00125 27.13235 20283 ft 468 kts
2026-02-17 12:52 39.03383 27.13840 20684 ft 467 kts
2026-02-17 12:52 39.06597 27.14432 20944 ft 469 kts
2026-02-17 12:52 39.09905 27.15039 21335 ft 468 kts
2026-02-17 12:52 39.13238 27.15648 21607 ft 470 kts
2026-02-17 12:53 39.16555 27.16252 21898 ft 471 kts
2026-02-17 12:53 39.19868 27.16851 22110 ft 475 kts
2026-02-17 12:53 39.23194 27.17459 22399 ft 475 kts
2026-02-17 12:53 39.26554 27.18075 22710 ft 476 kts
2026-02-17 12:54 39.29933 27.18694 22927 ft 479 kts
2026-02-17 12:54 39.33311 27.19317 23344 ft 477 kts
2026-02-17 12:54 39.36602 27.19932 23641 ft 478 kts
2026-02-17 12:55 39.43286 27.21203 24027 ft 483 kts
2026-02-17 12:55 39.46674 27.21808 24339 ft 483 kts
2026-02-17 12:55 39.50062 27.22195 24520 ft 485 kts 360°
2026-02-17 12:55 39.53450 27.22276 24762 ft 485 kts 356°
2026-02-17 12:56 39.56835 27.22164 25024 ft 485 kts 354°
2026-02-17 12:56 39.60243 27.21950 25296 ft 486 kts 353°
2026-02-17 12:56 39.63672 27.21688 25768 ft 482 kts 353°
2026-02-17 12:56 39.67025 27.21420 26138 ft 481 kts 352°
2026-02-17 12:57 39.70433 27.21148 26475 ft 480 kts 353°
2026-02-17 12:57 39.73783 27.20888 26794 ft 480 kts 353°
2026-02-17 12:57 39.77185 27.20632 27038 ft 481 kts 353°
2026-02-17 12:57 39.80538 27.20388 27204 ft 484 kts 354°
2026-02-17 12:58 39.83894 27.20154 27533 ft 483 kts 353°
2026-02-17 12:58 39.87250 27.19925 27893 ft 481 kts 353°
2026-02-17 12:58 39.90605 27.19696 27877 ft 488 kts 353°
2026-02-17 12:59 39.97513 27.19619 27856 ft 502 kts
2026-02-17 12:59 40.00997 27.20226 27831 ft 506 kts
2026-02-17 12:59 40.04335 27.21236 27758 ft 490 kts 13°
2026-02-17 12:59 40.07606 27.22487 27478 ft 480 kts 16°
2026-02-17 13:00 40.10697 27.23804 27446 ft 465 kts 17°
2026-02-17 13:00 40.13752 27.25173 27437 ft 457 kts 16°
2026-02-17 13:00 40.16770 27.26442 27451 ft 463 kts 14°
2026-02-17 13:00 40.19950 27.27322 27456 ft 472 kts
2026-02-17 13:01 40.23259 27.27833 27453 ft 481 kts
2026-02-17 13:01 40.26644 27.28148 27457 ft 485 kts
2026-02-17 13:01 40.30040 27.28332 27468 ft 483 kts 359°
2026-02-17 13:01 40.33445 27.28506 27454 ft 481 kts 360°
2026-02-17 13:02 40.36812 27.28708 27467 ft 481 kts
2026-02-17 13:02 40.40199 27.28925 27461 ft 481 kts 359°
2026-02-17 13:02 40.43634 27.29094 27448 ft 477 kts 359°
2026-02-17 13:03 40.50355 27.29519 27358 ft 454 kts 359°
2026-02-17 13:03 40.53498 27.29752 27159 ft 442 kts
2026-02-17 13:03 40.56622 27.29926 26754 ft 434 kts 359°
2026-02-17 13:03 40.59675 27.30068 26433 ft 424 kts 360°
2026-02-17 13:04 40.62642 27.30347 26443 ft 417 kts
2026-02-17 13:04 40.65586 27.30652 26462 ft 424 kts
2026-02-17 13:04 40.68572 27.30909 26461 ft 436 kts 360°
2026-02-17 13:04 40.71609 27.30952 26458 ft 441 kts 354°
2026-02-17 13:05 40.74644 27.30441 26450 ft 435 kts 343°
2026-02-17 13:05 40.77511 27.29227 26450 ft 427 kts 334°
2026-02-17 13:05 40.80220 27.27636 26451 ft 423 kts 330°
2026-02-17 13:05 40.82879 27.25941 26428 ft 425 kts 330°
2026-02-17 13:06 40.85564 27.24383 26351 ft 428 kts 332°
2026-02-17 13:06 40.88294 27.22771 25661 ft 429 kts 331°
2026-02-17 13:06 40.90996 27.21082 25206 ft 422 kts 330°
2026-02-17 13:07 40.96201 27.17755 24413 ft 407 kts 330°
2026-02-17 13:07 40.98812 27.16220 23624 ft 412 kts 336°
2026-02-17 13:07 41.01629 27.15350 23087 ft 413 kts 351°
2026-02-17 13:07 41.04525 27.15375 22581 ft 413 kts
2026-02-17 13:08 41.07356 27.16101 22010 ft 412 kts 14°
2026-02-17 13:08 41.10099 27.17246 21515 ft 408 kts 19°
2026-02-17 13:08 41.12660 27.18794 21448 ft 397 kts 30°
2026-02-17 13:08 41.14967 27.20809 21195 ft 389 kts 37°
2026-02-17 13:09 41.17141 27.23044 20575 ft 396 kts 39°
2026-02-17 13:09 41.19281 27.25389 19883 ft 402 kts 40°
2026-02-17 13:09 41.21289 27.27980 19255 ft 400 kts 52°
2026-02-17 13:09 41.22793 27.31094 18830 ft 390 kts 66°
2026-02-17 13:10 41.23810 27.34402 18641 ft 375 kts 74°
2026-02-17 13:10 41.24407 27.37756 18446 ft 359 kts 89°
2026-02-17 13:10 41.24321 27.41008 18320 ft 339 kts 104°
2026-02-17 13:11 41.22892 27.46822 17539 ft 325 kts 121°
2026-02-17 13:11 41.21757 27.49370 17098 ft 319 kts 130°
2026-02-17 13:11 41.20398 27.51695 16718 ft 313 kts 134°
2026-02-17 13:11 41.18987 27.53909 16281 ft 311 kts 135°
2026-02-17 13:12 41.17601 27.56073 15845 ft 311 kts 134°
2026-02-17 13:12 41.16184 27.58328 15432 ft 309 kts 134°
2026-02-17 13:12 41.14798 27.60566 14995 ft 308 kts 133°
2026-02-17 13:12 41.13462 27.62833 14652 ft 305 kts 129°
2026-02-17 13:13 41.12336 27.65361 14190 ft 309 kts 118°
2026-02-17 13:13 41.11588 27.68118 13778 ft 310 kts 111°
2026-02-17 13:13 41.11019 27.70922 13427 ft 307 kts 109°
2026-02-17 13:13 41.10500 27.73721 13135 ft 302 kts 109°
2026-02-17 13:14 41.09976 27.76496 12743 ft 300 kts 109°
2026-02-17 13:14 41.09481 27.79280 12350 ft 301 kts 105°
2026-02-17 13:14 41.09258 27.82078 11960 ft 303 kts 97°
2026-02-17 13:15 41.09259 27.87905 11140 ft 303 kts 94°
2026-02-17 13:15 41.09277 27.90676 10794 ft 300 kts 95°
2026-02-17 13:15 41.09391 27.93476 10398 ft 302 kts 87°
2026-02-17 13:15 41.09738 27.96265 9998 ft 304 kts 83°
2026-02-17 13:16 41.10174 27.99010 9620 ft 303 kts 82°
2026-02-17 13:16 41.10640 28.01807 9452 ft 293 kts 82°
2026-02-17 13:16 41.11077 28.04503 9134 ft 290 kts 82°
2026-02-17 13:16 41.11558 28.07213 8666 ft 295 kts 76°
2026-02-17 13:17 41.12454 28.09709 8506 ft 291 kts 52°
2026-02-17 13:17 41.14050 28.11347 8530 ft 282 kts 24°
2026-02-17 13:17 41.15929 28.12270 8665 ft 284 kts 15°
2026-02-17 13:17 41.17884 28.13079 8929 ft 294 kts 16°
2026-02-17 13:18 41.19911 28.13996 8951 ft 301 kts 18°
2026-02-17 13:18 41.21891 28.14983 8945 ft 296 kts 20°
2026-02-17 13:18 41.23875 28.15951 8952 ft 292 kts 15°
2026-02-17 13:19 41.27783 28.15561 8982 ft 276 kts 326°
2026-02-17 13:19 41.29587 28.14553 8916 ft 286 kts 345°
2026-02-17 13:19 41.31618 28.14735 8943 ft 291 kts 20°
2026-02-17 13:19 41.33357 28.16252 8976 ft 293 kts 46°
2026-02-17 13:20 41.34782 28.18286 8954 ft 292 kts 50°
2026-02-17 13:20 41.36169 28.20345 8966 ft 292 kts 49°
2026-02-17 13:20 41.37619 28.22413 8958 ft 313 kts 47°
2026-02-17 13:20 41.39242 28.24648 8911 ft 340 kts 46°
2026-02-17 13:21 41.40978 28.26999 8566 ft 357 kts 46°
2026-02-17 13:21 41.42744 28.29380 8116 ft 361 kts 46°
2026-02-17 13:21 41.44519 28.31771 7698 ft 355 kts 46°
2026-02-17 13:21 41.46307 28.34181 7300 ft 345 kts 47°
2026-02-17 13:22 41.48018 28.36492 6855 ft 333 kts 47°
2026-02-17 13:22 41.49640 28.38691 6459 ft 321 kts 47°
2026-02-17 13:22 41.51207 28.40813 6090 ft 310 kts 47°
2026-02-17 13:23 41.54218 28.44895 5401 ft 300 kts 48°
2026-02-17 13:23 41.55728 28.46949 5011 ft 297 kts 48°
2026-02-17 13:23 41.57193 28.48919 4907 ft 285 kts 46°
2026-02-17 13:23 41.58644 28.50725 4906 ft 271 kts 44°
2026-02-17 13:24 41.60059 28.52395 4892 ft 260 kts 44°
2026-02-17 13:24 41.61463 28.54057 4948 ft 260 kts 44°
2026-02-17 13:24 41.62883 28.55767 4965 ft 265 kts 44°
2026-02-17 13:24 41.64302 28.57479 4968 ft 264 kts 44°
2026-02-17 13:25 41.65651 28.59272 4958 ft 261 kts 54°
2026-02-17 13:25 41.66507 28.61467 4953 ft 252 kts 85°
2026-02-17 13:25 41.66372 28.63814 4972 ft 238 kts 115°
2026-02-17 13:25 41.65752 28.65952 4951 ft 237 kts 119°
2026-02-17 13:26 41.65133 28.68070 4934 ft 235 kts 117°
2026-02-17 13:26 41.64528 28.70207 4809 ft 234 kts 120°
2026-02-17 13:26 41.63693 28.72087 4647 ft 217 kts 142°
2026-02-17 13:27 41.61116 28.74060 4186 ft 201 kts 160°
2026-02-17 13:27 41.59762 28.74686 3970 ft 196 kts 171°
2026-02-17 13:27 41.58414 28.74941 3940 ft 191 kts 178°
2026-02-17 13:27 41.57035 28.75049 3981 ft 195 kts 180°
2026-02-17 13:28 41.55638 28.75104 3955 ft 196 kts 180°
2026-02-17 13:28 41.54235 28.75142 3957 ft 196 kts 181°
2026-02-17 13:28 41.52858 28.75173 3968 ft 196 kts 181°
2026-02-17 13:28 41.51450 28.75201 3966 ft 194 kts 181°
2026-02-17 13:29 41.50072 28.75226 3986 ft 195 kts 181°
2026-02-17 13:29 41.48656 28.75253 3986 ft 196 kts 181°
2026-02-17 13:29 41.47266 28.75280 3991 ft 194 kts 181°
2026-02-17 13:29 41.45849 28.75305 3783 ft 201 kts 181°
2026-02-17 13:30 41.44388 28.75334 3408 ft 202 kts 180°
2026-02-17 13:30 41.43015 28.75362 3126 ft 185 kts 180°
2026-02-17 13:30 41.41733 28.75386 2863 ft 170 kts 180°
2026-02-17 13:31 41.39484 28.75429 2422 ft 149 kts 180°
2026-02-17 13:31 41.38398 28.75450 2223 ft 153 kts 180°
2026-02-17 13:31 41.37290 28.75470 2009 ft 147 kts 180°
2026-02-17 13:31 41.36287 28.75491 1759 ft 137 kts 180°
2026-02-17 13:32 41.35368 28.75510 1667 ft 121 kts 180°
2026-02-17 13:32 41.34533 28.75526 1380 ft 118 kts 180°
2026-02-17 13:32 41.33697 28.75533 1189 ft 124 kts 180°
2026-02-17 13:32 41.32827 28.75541 1150 ft 128 kts 180°
2026-02-17 13:33 41.31929 28.75552 986 ft 131 kts 179°
2026-02-17 13:33 41.31009 28.75573 827 ft 133 kts 180°
2026-02-17 13:33 41.30051 28.75592 588 ft 139 kts 179°
2026-02-17 13:33 41.29095 28.75613 387 ft 138 kts 179°
2026-02-17 13:34 41.28198 28.75638 334 ft 110 kts 180°
2026-02-17 13:34 41.27561 28.75649 334 ft 74 kts 179°
2026-02-17 13:34 41.27177 28.75632 334 ft 35 kts 198°
2026-02-17 13:35 41.26828 28.75392 334 ft 24 kts 205°
2026-02-17 13:35 41.26684 28.75378 334 ft 18 kts 179°
2026-02-17 13:35 41.26562 28.75381 334 ft 15 kts 180°
2026-02-17 13:35 41.26461 28.75381 334 ft 13 kts 180°
2026-02-17 13:36 41.26366 28.75382 334 ft 13 kts 176°
2026-02-17 13:36 41.26269 28.75383 334 ft 13 kts 180°
2026-02-17 13:36 41.26172 28.75387 334 ft 14 kts 179°
2026-02-17 13:36 41.26068 28.75389 334 ft 14 kts 179°
2026-02-17 13:37 41.25976 28.75391 334 ft 11 kts 179°
2026-02-17 13:37 41.25917 28.75363 334 ft 5 kts 249°
2026-02-17 13:37 41.25921 28.75307 334 ft 9 kts 275°
2026-02-17 13:37 41.25921 28.75170 334 ft 16 kts 269°
2026-02-17 13:38 41.25902 28.75043 334 ft 12 kts 251°
2026-02-17 13:38 41.25892 28.74999 334 ft 1 kts 256°
2026-02-17 13:38 41.25889 28.74985 334 ft 1 kts 251°
2026-02-17 13:39 41.25886 28.74974 334 ft 0 kts 250°